Regional Weather Roundup
Issued by NWS

Home | Current Version | Previous Version | Graphics & Text | Print | Product List | Glossary On
Versions: 1 2 3 4 5 6 7 8 9 10 11 12 13 14 15 16 17 18 19 20 21 22 23 24 25 26 27 28 29 30 31 32 33 34 35 36 37 38 39 40 41 42 43 44 45 46 47 48 49
000
ASUS45 KTFX 310310
RWRMT
MONTANA REGIONAL WEATHER ROUNDUP
NATIONAL WEATHER SERVICE GREAT FALLS MT
900 PM MDT THU JUL 30 2015

NOTE: "FAIR" INDICATES FEW OR NO CLOUDS BELOW 12000 FEET WITH NO
SIGNIFICANT WEATHER AND/OR OBSTRUCTIONS TO VISIBILITY.

MTZ001>007-043-310400-
WEST OF THE DIVIDE

CITY           SKY/WX    TMP DP  RH WIND       PRES   REMARKS
KALISPELL      CLEAR     78  38  23 S3        30.11S
MISSOULA       CLEAR     82  43  25 W3        30.14S
BUTTE          CLEAR     76  35  22 NW6       30.31R
MULLAN PASS    CLEAR     70  30  22 VRB5      30.35S
DEER LODGE       N/A     68  43  40 W7        30.29R
EUREKA           N/A     84  36  17 CALM      30.10S
HAMILTON         N/A     77  46  33 W3        30.17R
LIBBY            N/A     82  36  18 W3        30.11S
PLAINS           N/A     86  39  18 CALM      30.10R
RONAN            N/A     82  48  30 CALM      30.17S
$$

MTZ008-052>055-310400-
SOUTHWEST MONTANA

CITY           SKY/WX    TMP DP  RH WIND       PRES   REMARKS
BOZEMAN        CLEAR     74  45  35 E5        30.23F
DILLON         CLEAR     74  43  32 CALM      30.26R
W YELLOWSTONE  CLEAR     63  41  45 S5        30.41R
THREE FORKS      N/A     76  52  43 CALM      30.19S
TWIN BRIDGES     N/A     78  42  27 E5        30.21S
$$

MTZ009-010-012-014-046-048-049-054-310400-
EAST SLOPES AND CENTRAL MONTANA

CITY           SKY/WX    TMP DP  RH WIND       PRES   REMARKS
CUT BANK       CLEAR     74  39  28 NW8       30.17R
GREAT FALLS    CLEAR     75  41  29 E7        30.16F
MALMSTROM AFB  CLEAR     77  40  26 E6        30.16S
HELENA         CLEAR     82  42  24 S3        30.17S
$$

MTZ011-013-016-021-045-047-050-051-310400-
NORTH CENTRAL MONTANA

CITY           SKY/WX    TMP DP  RH WIND       PRES   REMARKS
HAVRE          CLEAR     76  50  40 E7        30.12R
LEWISTOWN      CLEAR     71  45  39 SE6       30.25R
CHINOOK          N/A     75  52  43 CALM      30.12S
$$

MTZ017>020-022>027-061-062-310400-
NORTHEAST MONTANA

CITY           SKY/WX    TMP DP  RH WIND       PRES   REMARKS
GLASGOW        CLEAR     78  43  28 NW3       30.13S
JORDAN           N/A     71  45  39 NE7       30.17R
SIDNEY         CLEAR    N/A N/A N/A W7        30.13S
WOLF POINT     CLEAR     74  49  41 CALM      30.13S
MALTA            N/A     74  53  47 CALM      30.09S
PLENTYWOOD       N/A     66  52  59 NE6       30.15R
POPLAR           N/A     75  48  38 CALM      30.14S
$$

MTZ028>42-056>058-310400-
SOUTHCENTRAL AND SOUTHEAST MONTANA

CITY           SKY/WX    TMP DP  RH WIND       PRES   REMARKS
BAKER          CLEAR     71  43  36 N6        30.20R
BILLINGS       CLEAR     81  36  19 E6        30.20S
LIVINGSTON     CLEAR     71  38  29 S6        30.25R
MILES CITY     CLEAR     77  45  32 NE10      30.16R
FORSYTH          N/A     81  39  22 N3        30.16S
LAUREL           N/A     76  39  26 CALM      30.17R
ROUNDUP          N/A     77  38  24 CALM      30.11R
$$

REGIONAL REPORTS...DAKOTAS

CITY           SKY/WX    TMP DP  RH WIND       PRES   REMARKS
WILLISTON      CLEAR     71  47  42 N7        30.14R
MINOT          CLEAR     63  47  55 NW9       30.11S
DICKINSON      CLEAR     68  47  46 NE5       30.16R
BEACH          FAIR      66  48  52 NW5       30.20R
CROSBY         FAIR      59  55  88 W3        30.15R
BISMARCK       CLEAR     71  52  50 NE3       30.13R
GRAND FORKS    CLEAR     66  51  58 W8        30.01R
FARGO          CLEAR     68  57  68 W10       30.03R
BUFFALO SD       N/A     72  48  42 E12       30.13R
RAPID CITY     CLEAR     66  56  70 CALM      30.19S
$$

REGIONAL REPORTS...WYOMING/IDAHO/WASHINGTON

CITY           SKY/WX    TMP DP  RH WIND       PRES   REMARKS
GILLETTE       CLEAR     64  41  42 N3        30.25R
SHERIDAN       CLEAR     69  45  41 NW6       30.23R
BUFFALO WY     CLEAR     70  42  36 W8        30.31R
CODY           CLEAR     73  39  29 NE3       30.30R
YELLOWSTONE LA   N/A     57  37  47 NW3       30.52R
IDAHO FALLS    CLEAR     68  46  45 NE3       30.26S
SALMON         CLEAR     75  46  35 CALM      30.16R
BOISE          CLEAR     88  34  14 W3        30.11S
SPOKANE        CLEAR     91  29  11 SW5       30.07F
$$

REGIONAL REPORTS...ALBERTA

CITY           SKY/WX    TMP DP  RH WIND       PRES   REMARKS
EDMONTON       CLEAR     66  46  48 W2        30.11S
CALGARY        PTCLDY    70  46  43 E12       30.17R
LETHBRIDGE     PTCLDY    73  50  43 E6        30.11R
MEDICINE HAT   PTCLDY    77  39  25 NE6       30.11S
CARDSTON         N/A     73  45  35 NW5         N/A
MILK RIVER       N/A     70  41  35 E9          N/A
ONEFOUR          N/A     70  48  46 NE13        N/A
$$

REGIONAL REPORTS...SASKATCHEWAN

CITY           SKY/WX    TMP DP  RH WIND       PRES   REMARKS
SWIFT CURRENT  CLEAR     68  48  49 NW5       30.14S
REGINA         PTCLDY    63  54  72 W5        30.11S
SASKATOON      PTCLDY    59  50  72 NW7       30.10S
CYPRESS HILLS    N/A     66  37  34 N3          N/A
VAL MARIE        N/A     63  54  72 NE7         N/A
ROCKGLEN         N/A     66  52  59 NW5         N/A
ASSINIBOIA       N/A     64  50  59 SW2         N/A
$$



USA.gov is the U.S. government's official web portal to all federal, state and local government web resources and services.